Weather History for Phoenix Deer Valley, AZ

Change the Weather History Date:

Monday, February 11, 2013

  Actual Average Record
Temperature  
Mean Temperature 44 °F -  
Max Temperature 50 °F 64 °F 75 °F (2012)
Min Temperature 37 °F 44 °F 37 °F (1999)
Degree Days  
Heating Degree Days 20    
Moisture  
Dew Point 34 °F    
Average Humidity 65    
Maximum Humidity 86    
Minimum Humidity 52    
Precipitation  
Precipitation 0.00 in - - ()
Sea Level Pressure  
Sea Level Pressure 30.02 in    
Wind  
Wind Speed 5 mph (NNE)    
Max Wind Speed 18 mph    
Max Gust Speed 25 mph    
Visibility 10 miles    
Events Rain    
Averages and records for this station are not official NWS values.
T = Trace of Precipitation, MM = Missing Value Source: NWS Daily Summary

Daily Weather History Graph

Daily Weather History Graph

Search for Another Location

Airport:

Trip Planner

Search our weather history database for the weather conditions in past years. The results will help you decide how hot, cold, wet, or windy it might be!

Date:

Astronomy

Feb. 11, 2013 Rise Set
Actual Time 7:16 AM MST 6:09 PM MST
Civil Twilight 6:50 AM MST 6:34 PM MST
Nautical Twilight 6:21 AM MST 7:04 PM MST
Astronomical Twilight 5:52 AM MST 7:33 PM MST
Moon 7:49 AM MST (2/11) 8:01 PM MST (2/11)
Length of Visible Light 11h 44m
Length of Day
10h 53m
Waxing Crescent, 3% of the Moon is Illuminated
Feb 11
Waxing Crescent
Feb 17
First Quarter
Feb 25
Full
Mar 4
Last Quarter
Mar 11
New

Hourly Weather History & Observations

Time (MST) Temp. Windchill Dew Point Humidity Pressure Visibility Wind Dir Wind Speed Gust Speed Precip Events Conditions
12:53 AM 45.0 °F 43.5 °F 32.0 °F 60% 29.95 in 10.0 mi ENE 3.5 mph - N/A   Scattered Clouds
1:53 AM 43.0 °F 41.3 °F 30.9 °F 62% 29.96 in 10.0 mi East 3.5 mph - N/A   Partly Cloudy
2:53 AM 45.0 °F - 32.0 °F 60% 29.95 in 10.0 mi Calm Calm - N/A   Mostly Cloudy
3:53 AM 45.0 °F - 33.1 °F 63% 29.94 in 10.0 mi Calm Calm - N/A   Mostly Cloudy
4:53 AM 45.0 °F - 33.1 °F 63% 29.93 in 10.0 mi Calm Calm - N/A   Mostly Cloudy
5:53 AM 45.0 °F - 34.0 °F 65% 29.94 in 10.0 mi Calm Calm - N/A   Scattered Clouds
5:59 AM 44.6 °F 41.4 °F 33.8 °F 66% 29.96 in 10.0 mi NW 5.8 mph - N/A   Partly Cloudy
6:53 AM 44.1 °F 36.2 °F 33.1 °F 65% 29.97 in 10.0 mi North 18.4 mph 25.3 mph N/A   Mostly Cloudy
7:53 AM 43.0 °F 36.0 °F 33.1 °F 68% 29.99 in 10.0 mi North 13.8 mph - N/A   Mostly Cloudy
8:53 AM 45.0 °F 40.1 °F 33.1 °F 63% 30.01 in 10.0 mi NNE 9.2 mph - 0.00 in Rain Light Rain
9:53 AM 46.0 °F 41.9 °F 34.0 °F 63% 30.03 in 10.0 mi ENE 8.1 mph - 0.00 in   Overcast
10:53 AM 46.9 °F - 34.0 °F 61% 30.04 in 10.0 mi ESE 8.1 mph - 0.00 in   Overcast
11:53 AM 46.0 °F 42.5 °F 35.1 °F 66% 30.06 in 10.0 mi South 6.9 mph - N/A   Overcast
12:53 PM 45.0 °F 40.1 °F 35.1 °F 68% 30.04 in 10.0 mi ESE 9.2 mph - N/A   Overcast
1:53 PM 48.0 °F - 35.1 °F 61% 30.03 in 10.0 mi Variable 4.6 mph - 0.00 in   Partly Cloudy
2:53 PM 50.0 °F - 34.0 °F 54% 30.02 in 10.0 mi Calm Calm - N/A   Scattered Clouds
3:53 PM 50.0 °F - 34.0 °F 54% 30.02 in 10.0 mi NW 10.4 mph 18.4 mph N/A   Overcast
4:53 PM 48.0 °F - 30.9 °F 52% 30.04 in 10.0 mi NW 9.2 mph - N/A   Scattered Clouds
5:53 PM 46.9 °F - 33.1 °F 59% 30.06 in 10.0 mi West 12.7 mph - N/A   Clear
6:53 PM 45.0 °F 41.8 °F 35.1 °F 68% 30.06 in 10.0 mi West 5.8 mph - N/A   Clear
7:53 PM 44.1 °F - 35.1 °F 71% 30.09 in 10.0 mi Calm Calm - N/A   Clear
8:53 PM 43.0 °F 41.3 °F 35.1 °F 74% 30.11 in 10.0 mi East 3.5 mph - N/A   Clear
9:53 PM 39.9 °F - 35.1 °F 83% 30.12 in 10.0 mi Calm Calm - N/A   Clear
10:53 PM 39.0 °F - 34.0 °F 82% 30.14 in 10.0 mi Calm Calm - N/A   Clear
11:53 PM 37.9 °F - 34.0 °F 86% 30.16 in 10.0 mi Calm Calm - N/A   Clear